DW8052 Weather Reports


time (UTC)temp
C
wind
direction
speed
KPH
gust
KPH
rain 1hr
cm
rain 24hr
cm
rain mn
cm
humidity
%
barometer
mb
20260509093711 17 195 11.3 14.5 0.00 0.00 0.00 61 1025.7
20260509093210 17 181 11.3 16.1 0.00 0.00 0.00 61 1025.6
20260509092211 17 183 11.3 14.5 0.00 0.00 0.00 61 1025.6
20260509091711 17 188 11.3 14.5 0.00 0.00 0.00 61 1025.6
20260509091210 17 182 11.3 14.5 0.00 0.00 0.00 62 1025.6
20260509090710 17 182 9.7 12.9 0.00 0.00 0.00 62 1025.4
20260509090211 17 184 8.0 9.7 0.00 0.00 0.00 62 1025.5
20260509085710 17 180 8.0 9.7 0.00 0.00 0.00 62 1025.4
20260509085211 17 172 4.8 8.0 0.00 0.00 0.00 62 1025.3
20260509084711 17 172 4.8 11.3 0.00 0.00 0.00 61 1025.3
20260509084211 17 174 9.7 12.9 0.00 0.00 0.00 61 1025.4
20260509083710 17 177 9.7 11.3 0.00 0.00 0.00 62 1025.2
20260509083211 17 167 9.7 12.9 0.00 0.00 0.00 63 1025.1
20260509082711 17 157 11.3 14.5 0.00 0.00 0.00 62 1025.0
20260509082211 17 160 11.3 14.5 0.00 0.00 0.00 61 1025.4
20260509081711 17 158 11.3 14.5 0.00 0.00 0.00 61 1024.9
20260509081210 17 162 9.7 16.1 0.00 0.00 0.00 62 1024.9
20260509080711 17 157 11.3 14.5 0.00 0.00 0.00 61 1025.0
20260509080211 17 162 9.7 12.9 0.00 0.00 0.00 61 1024.7
20260509075711 17 167 8.0 11.3 0.00 0.00 0.00 62 1024.9
20260509075211 17 160 9.7 14.5 0.00 0.00 0.00 62 1024.9
20260509074711 17 160 8.0 16.1 0.00 0.00 0.00 61 1024.5
20260509073711 17 148 9.7 16.1 0.00 0.00 0.00 61 1024.5
20260509073210 17 159 9.7 12.9 0.00 0.00 0.00 60 1024.5
20260509072710 17 151 9.7 12.9 0.00 0.00 0.00 60 1024.6
20260509071710 18 152 9.7 14.5 0.00 0.00 0.00 59 1024.3
20260509071211 18 150 11.3 16.1 0.00 0.00 0.00 59 1024.3
20260509070711 18 147 9.7 12.9 0.00 0.00 0.00 59 1024.3
20260509070210 18 148 8.0 12.9 0.00 0.00 0.00 57 1024.4
20260509065710 18 160 11.3 16.1 0.00 0.00 0.00 57 1024.1
20260509065211 18 153 9.7 14.5 0.00 0.00 0.00 57 1024.1
20260509064710 18 125 8.0 14.5 0.00 0.00 0.00 56 1024.2
20260509063711 18 159 11.3 19.3 0.00 0.00 0.00 55 1024.0
20260509063210 18 154 14.5 19.3 0.00 0.00 0.00 54 1024.0
20260509062710 19 150 16.1 20.9 0.00 0.00 0.00 54 1023.9
20260509062211 19 155 14.5 19.3 0.00 0.00 0.00 53 1023.9
20260509061711 19 148 8.0 12.9 0.00 0.00 0.00 54 1023.9
20260509061210 19 131 11.3 19.3 0.00 0.00 0.00 52 1023.8
20260509060711 19 155 11.3 20.9 0.00 0.00 0.00 51 1023.8
20260509060211 19 164 14.5 20.9 0.00 0.00 0.00 50 1023.9
20260509055210 19 155 9.7 19.3 0.00 0.00 0.00 52 1023.6
20260509054211 19 128 11.3 24.1 0.00 0.00 0.00 52 1023.4
20260509053711 19 143 17.7 24.1 0.00 0.00 0.00 51 1023.5
20260509053210 19 127 11.3 19.3 0.00 0.00 0.00 51 1023.5
20260509052710 19 159 9.7 20.9 0.00 0.00 0.00 53 1023.4
20260509052210 19 133 16.1 22.5 0.00 0.00 0.00 51 1023.5
20260509051711 19 157 14.5 20.9 0.00 0.00 0.00 52 1023.6
20260509050710 19 146 16.1 22.5 0.00 0.00 0.00 52 1023.3
20260509050210 19 155 11.3 20.9 0.00 0.00 0.00 51 1023.8
20260509045710 19 149 17.7 25.7 0.00 0.00 0.00 51 1023.4
20260509045209 19 136 19.3 22.5 0.00 0.00 0.00 51 1023.5
20260509044710 19 157 16.1 22.5 0.00 0.00 0.00 51 1023.3
20260509044210 19 177 16.1 24.1 0.00 0.00 0.00 51 1023.6
20260509043210 19 144 16.1 22.5 0.00 0.00 0.00 50 1023.2
20260509042710 19 167 16.1 22.5 0.00 0.00 0.00 50 1023.2
20260509042210 19 167 11.3 24.1 0.00 0.00 0.00 49 1023.3
20260509041710 20 112 14.5 22.5 0.00 0.00 0.00 49 1023.2
20260509041210 20 164 14.5 27.4 0.00 0.00 0.00 48 1023.4
20260509040711 20 144 14.5 20.9 0.00 0.00 0.00 48 1023.1
20260509040210 20 136 17.7 25.7 0.00 0.00 0.00 48 1023.2
20260509035710 20 145 14.5 22.5 0.00 0.00 0.00 49 1023.2
20260509035210 20 158 14.5 20.9 0.00 0.00 0.00 48 1023.2
20260509034710 20 153 16.1 25.7 0.00 0.00 0.00 49 1023.3
20260509034210 20 173 16.1 25.7 0.00 0.00 0.00 49 1023.3
20260509033710 20 155 12.9 22.5 0.00 0.00 0.00 49 1023.2
20260509033210 20 174 19.3 25.7 0.00 0.00 0.00 47 1023.4
20260509032710 20 148 11.3 32.2 0.00 0.00 0.00 49 1023.4
20260509031710 20 142 16.1 24.1 0.00 0.00 0.00 48 1023.4
20260509031210 20 148 16.1 25.7 0.00 0.00 0.00 48 1023.5
20260509030710 20 166 19.3 27.4 0.00 0.00 0.00 48 1023.6
20260509030210 20 137 17.7 29.0 0.00 0.00 0.00 49 1023.6
20260509025710 20 158 12.9 24.1 0.00 0.00 0.00 47 1023.5
20260509025210 20 132 19.3 29.0 0.00 0.00 0.00 48 1024.0
20260509024710 20 197 16.1 27.4 0.00 0.00 0.00 46 1023.8
20260509024210 20 151 20.9 29.0 0.00 0.00 0.00 45 1023.8
20260509023210 21 189 22.5 29.0 0.00 0.00 0.00 44 1024.0
20260509022710 21 148 16.1 27.4 0.00 0.00 0.00 45 1024.1
20260509022210 21 165 22.5 32.2 0.00 0.00 0.00 45 1024.0
20260509020710 21 179 20.9 32.2 0.00 0.00 0.00 44 1024.2
20260509015710 21 162 11.3 24.1 0.00 0.00 0.00 43 1024.3
20260509015210 21 180 17.7 27.4 0.00 0.00 0.00 43 1024.5
20260509014710 21 176 22.5 32.2 0.00 0.00 0.00 43 1024.4
20260509014210 21 189 16.1 32.2 0.00 0.00 0.00 44 1024.6
20260509013210 21 139 9.7 19.3 0.00 0.00 0.00 44 1024.7
20260509012710 21 193 20.9 27.4 0.00 0.00 0.00 42 1024.6
20260509012210 21 190 16.1 32.2 0.00 0.00 0.00 42 1024.9
20260509011710 21 165 12.9 22.5 0.00 0.00 0.00 42 1024.8
20260509011209 21 175 16.1 27.4 0.00 0.00 0.00 42 1024.7
20260509010710 21 195 16.1 22.5 0.00 0.00 0.00 42 1024.7
20260509010210 21 202 11.3 16.1 0.00 0.00 0.00 42 1024.8
20260509005710 21 194 4.8 19.3 0.00 0.00 0.00 43 1025.0
20260509005210 21 208 9.7 19.3 0.00 0.00 0.00 43 1024.8
20260509004709 21 200 11.3 24.1 0.00 0.00 0.00 42 1024.9
20260509004210 21 193 19.3 24.1 0.00 0.00 0.00 42 1024.9
20260509003710 21 179 11.3 25.7 0.00 0.00 0.00 42 1025.1
20260509002710 21 181 11.3 19.3 0.00 0.00 0.00 41 1024.8
20260509002209 21 191 9.7 19.3 0.00 0.00 0.00 41 1024.8
20260509001710 21 202 9.7 19.3 0.00 0.00 0.00 41 1024.8
20260509001210 21 200 6.4 16.1 0.00 0.00 0.00 43 1025.1
20260509000710 21 198 9.7 16.1 0.00 0.00 0.00 42 1025.2
20260509000211 21 189 6.4 16.1 0.00 0.00 0.00 43 1025.0
20260508235209 20 244 6.4 11.3 0.00 0.00 0.00 44 1025.1
20260508234709 20 245 8.0 12.9 0.00 0.00 0.00 45 1025.3
20260508234210 20 246 4.8 8.0 0.00 0.00 0.00 46 1024.9
20260508233710 20 240 4.8 9.7 0.00 0.00 0.00 45 1025.0
20260508233209 20 247 4.8 12.9 0.00 0.00 0.00 47 1025.1
20260508232710 19 275 3.2 9.7 0.00 0.00 0.00 48 1025.0
20260508232209 19 261 4.8 8.0 0.00 0.00 0.00 49 1025.0
20260508231709 19 282 4.8 8.0 0.00 0.00 0.00 48 1025.1
20260508230210 17 256 4.8 9.7 0.00 0.00 0.00 53 1025.1
20260508225210 16 267 8.0 16.1 0.00 0.00 0.00 56 1025.1
20260508224710 16 275 9.7 14.5 0.00 0.00 0.00 57 1025.1
20260508224210 16 268 11.3 16.1 0.00 0.00 0.00 58 1024.9
20260508223710 15 281 9.7 16.1 0.00 0.00 0.00 60 1024.9
20260508223210 15 279 11.3 14.5 0.00 0.00 0.00 61 1024.9
20260508222710 15 285 9.7 14.5 0.00 0.00 0.00 63 1024.9
20260508222210 14 283 9.7 16.1 0.00 0.00 0.00 63 1024.8
20260508221710 14 288 11.3 16.1 0.00 0.00 0.00 63 1024.9
20260508221210 14 281 9.7 14.5 0.00 0.00 0.00 65 1024.8
20260508220709 13 282 11.3 16.1 0.00 0.00 0.00 65 1024.6
20260508220210 13 286 12.9 16.1 0.00 0.00 0.00 66 1024.5
20260508215709 13 281 12.9 16.1 0.00 0.00 0.00 67 1024.6
20260508215210 13 280 12.9 16.1 0.00 0.00 0.00 67 1024.5
20260508213210 13 290 14.5 19.3 0.00 0.00 0.00 69 1024.4
20260508212709 13 287 12.9 16.1 0.00 0.00 0.00 68 1024.3
20260508212210 12 287 14.5 19.3 0.00 0.00 0.00 69 1024.5
20260508211709 12 280 16.1 20.9 0.00 0.00 0.00 69 1024.4
20260508210209 12 275 14.5 19.3 0.00 0.00 0.00 69 1024.1
20260508205710 12 276 16.1 19.3 0.00 0.00 0.00 69 1024.1
20260508205209 12 282 16.1 19.3 0.00 0.00 0.00 69 1023.9
20260508204709 12 289 16.1 20.9 0.00 0.00 0.00 68 1023.8
20260508204209 12 293 16.1 19.3 0.00 0.00 0.00 67 1023.8
20260508203209 13 298 14.5 19.3 0.00 0.00 0.00 64 1023.5
20260508202709 13 291 9.7 12.9 0.00 0.00 0.00 62 1023.6
20260508202209 14 269 9.7 12.9 0.00 0.00 0.00 61 1023.6
20260508201709 14 265 11.3 14.5 0.00 0.00 0.00 61 1023.2
20260508201209 14 265 9.7 12.9 0.00 0.00 0.00 61 1023.2
20260508200709 14 264 9.7 12.9 0.00 0.00 0.00 61 1023.1
20260508200209 14 278 9.7 11.3 0.00 0.00 0.00 61 1023.4
20260508195710 14 259 9.7 12.9 0.00 0.00 0.00 61 1023.2
20260508195209 14 258 9.7 11.3 0.00 0.00 0.00 61 1022.9
20260508194709 14 261 9.7 11.3 0.00 0.00 0.00 62 1023.1
20260508194210 14 269 9.7 11.3 0.00 0.00 0.00 62 1022.8
20260508193709 14 272 9.7 12.9 0.00 0.00 0.00 62 1022.9
20260508192710 14 283 11.3 14.5 0.00 0.00 0.00 62 1022.7
20260508192209 14 285 11.3 14.5 0.00 0.00 0.00 63 1022.9
20260508191710 14 281 11.3 12.9 0.00 0.00 0.00 63 1022.5
20260508191210 14 285 8.0 9.7 0.00 0.00 0.00 63 1022.5
20260508190709 14 277 8.0 11.3 0.00 0.00 0.00 63 1022.6
20260508190209 14 274 9.7 11.3 0.00 0.00 0.00 63 1022.4
20260508185209 14 282 9.7 12.9 0.00 0.00 0.00 62 1022.4
20260508184709 14 279 9.7 14.5 0.00 0.00 0.00 62 1022.4
20260508184209 14 269 8.0 12.9 0.00 0.00 0.00 63 1022.4
20260508183709 14 248 9.7 14.5 0.00 0.00 0.00 63 1022.4
20260508183209 14 251 11.3 16.1 0.00 0.00 0.00 63 1022.4
20260508182709 14 251 14.5 19.3 0.00 0.00 0.00 63 1022.2
20260508182209 14 253 11.3 16.1 0.00 0.00 0.00 63 1022.1
20260508181709 14 242 11.3 16.1 0.00 0.00 0.00 63 1022.2
20260508181209 14 249 11.3 19.3 0.00 0.00 0.00 63 1022.1
20260508180209 14 244 11.3 16.1 0.00 0.00 0.00 63 1022.0
20260508175709 14 265 9.7 19.3 0.00 0.00 0.00 63 1022.4
20260508175209 14 252 16.1 19.3 0.00 0.00 0.00 62 1022.0
20260508174709 14 248 16.1 20.9 0.00 0.00 0.00 63 1021.9
20260508174209 14 251 17.7 20.9 0.00 0.00 0.00 63 1022.0
20260508173709 14 252 16.1 20.9 0.00 0.00 0.00 63 1021.9
20260508173209 14 245 16.1 20.9 0.00 0.00 0.00 63 1021.9
20260508172209 14 243 14.5 22.5 0.00 0.00 0.00 63 1021.8
20260508171708 14 247 14.5 19.3 0.00 0.00 0.00 63 1022.1
20260508171209 14 245 12.9 19.3 0.00 0.00 0.00 63 1022.2
20260508170709 14 252 14.5 20.9 0.00 0.00 0.00 63 1022.1
20260508170209 14 244 19.3 25.7 0.00 0.00 0.00 63 1022.1
20260508165709 14 246 19.3 24.1 0.00 0.00 0.00 63 1021.9
20260508165209 14 248 16.1 27.4 0.00 0.00 0.00 63 1022.1
20260508164709 14 252 12.9 19.3 0.00 0.00 0.00 63 1021.9
20260508164209 14 254 14.5 19.3 0.00 0.00 0.00 63 1022.1
20260508162709 14 259 16.1 22.5 0.00 0.00 0.00 62 1022.0
20260508162209 14 268 14.5 20.9 0.00 0.00 0.00 62 1022.0
20260508161209 15 260 9.7 14.5 0.00 0.00 0.00 62 1022.0
20260508160209 15 259 11.3 14.5 0.00 0.00 0.00 61 1022.1
20260508155709 15 262 11.3 16.1 0.00 0.00 0.00 61 1021.9
20260508155209 15 253 12.9 14.5 0.00 0.00 0.00 61 1022.0
20260508154709 15 263 9.7 14.5 0.00 0.00 0.00 61 1022.0
20260508153709 15 246 11.3 16.1 0.00 0.00 0.00 61 1022.0
20260508153209 15 245 12.9 19.3 0.00 0.00 0.00 61 1022.3
20260508152208 15 251 11.3 19.3 0.00 0.00 0.00 60 1021.9
20260508151709 15 243 12.9 19.3 0.00 0.00 0.00 60 1022.0
20260508151209 15 246 14.5 19.3 0.00 0.00 0.00 60 1022.0
20260508150709 15 241 14.5 22.5 0.00 0.00 0.00 60 1022.0
20260508150208 15 247 16.1 22.5 0.00 0.00 0.00 60 1022.2
20260508144708 15 243 17.7 25.7 0.00 0.00 0.00 59 1021.8
20260508143709 15 238 20.9 32.2 0.00 0.00 0.00 59 1021.8
20260508143209 15 239 27.4 32.2 0.00 0.00 0.00 58 1021.8
20260508142709 15 247 20.9 25.7 0.00 0.00 0.00 58 1021.6
20260508142208 15 241 20.9 29.0 0.00 0.00 0.00 59 1021.8
20260508141709 15 242 22.5 32.2 0.00 0.00 0.00 58 1021.9
20260508141208 15 246 24.1 32.2 0.00 0.00 0.00 58 1021.6
20260508140709 15 243 25.7 29.0 0.00 0.00 0.00 58 1021.8
20260508140209 15 246 24.1 29.0 0.00 0.00 0.00 58 1021.5
20260508135208 15 243 22.5 29.0 0.00 0.00 0.00 58 1021.7
20260508134709 15 249 20.9 32.2 0.00 0.00 0.00 58 1021.8
20260508134209 15 246 22.5 32.2 0.00 0.00 0.00 58 1021.7
20260508133709 15 242 22.5 29.0 0.00 0.00 0.00 58 1021.7
20260508133208 15 255 19.3 25.7 0.00 0.00 0.00 58 1021.5
20260508132708 15 250 25.7 35.4 0.00 0.00 0.00 58 1021.6
20260508132208 15 247 20.9 32.2 0.00 0.00 0.00 58 1021.5
20260508131709 15 244 22.5 32.2 0.00 0.00 0.00 57 1021.6
20260508131209 15 242 25.7 32.2 0.00 0.00 0.00 57 1021.5
20260508130708 15 238 24.1 32.2 0.00 0.00 0.00 57 1021.6
20260508130209 15 250 22.5 32.2 0.00 0.00 0.00 57 1021.4
20260508125208 15 251 22.5 32.2 0.00 0.00 0.00 57 1021.4
20260508124709 15 260 22.5 32.2 0.00 0.00 0.00 57 1021.5
20260508124208 15 252 22.5 32.2 0.00 0.00 0.00 57 1021.5
20260508123708 15 248 27.4 32.2 0.00 0.00 0.00 56 1021.6
20260508123208 15 251 22.5 32.2 0.00 0.00 0.00 56 1021.5
20260508121709 15 241 20.9 33.8 0.00 0.00 0.00 56 1021.5
20260508121208 15 240 20.9 37.0 0.00 0.00 0.00 56 1021.5
20260508120709 15 252 25.7 35.4 0.00 0.00 0.00 55 1021.6
20260508120208 15 261 22.5 38.6 0.00 0.00 0.00 55 1021.5
20260508115709 15 252 24.1 38.6 0.00 0.00 0.00 55 1021.4
20260508115208 15 254 24.1 37.0 0.00 0.00 0.00 55 1021.5
20260508114208 15 252 24.1 37.0 0.00 0.00 0.00 55 1021.3
20260508112708 15 256 32.2 41.8 0.00 0.00 0.00 55 1021.2
20260508112209 15 256 27.4 41.8 0.00 0.00 0.00 55 1021.2
20260508111709 15 256 32.2 45.1 0.00 0.00 0.00 55 1021.0
20260508111209 15 258 32.2 46.7 0.00 0.00 0.00 55 1021.1
20260508110708 15 257 27.4 40.2 0.00 0.00 0.00 55 1021.0
20260508110208 15 254 33.8 45.1 0.00 0.00 0.00 55 1021.0
20260508105708 15 249 29.0 45.1 0.00 0.00 0.00 55 1021.0
20260508105208 15 252 35.4 46.7 0.00 0.00 0.00 55 1020.8
20260508104709 15 251 29.0 41.8 0.00 0.00 0.00 55 1020.8
20260508104209 15 260 29.0 45.1 0.00 0.00 0.00 54 1020.7
20260508103708 15 255 33.8 46.7 0.00 0.00 0.00 54 1020.6
20260508103208 15 257 33.8 41.8 0.00 0.00 0.00 54 1020.7
20260508102708 15 259 32.2 45.1 0.00 0.00 0.00 54 1020.6
20260508102208 15 246 33.8 45.1 0.00 0.00 0.00 54 1020.6
20260508101708 15 253 29.0 51.5 0.00 0.00 0.00 54 1020.5
20260508101208 15 256 38.6 48.3 0.00 0.00 0.00 54 1020.5
20260508100709 15 246 35.4 48.3 0.00 0.00 0.00 54 1020.6
20260508100208 15 261 32.2 46.7 0.00 0.00 0.00 54 1020.4
20260508095708 15 261 35.4 49.9 0.00 0.00 0.00 54 1020.1
20260508095209 15 260 33.8 46.7 0.00 0.00 0.00 54 1020.3
20260508094708 15 257 32.2 48.3 0.00 0.00 0.00 54 1020.2